Regional Weather Roundup
Issued by NWS

Home | Current Version | Previous Version | Graphics & Text | Print | Product List | Glossary On
Versions: 1 2 3 4 5 6 7 8 9 10 11 12 13 14 15 16 17 18 19 20 21 22 23 24 25 26 27 28 29 30 31 32 33 34 35 36 37 38 39 40 41 42 43 44 45 46 47 48 49 50
000
ASUS43 KFSD 172002
RWRSD

WEATHER ROUNDUP FOR SOUTH DAKOTA
NATIONAL WEATHER SERVICE SIOUX FALLS SD
200 PM CST SAT FEB 17 2018

NOTE: "FAIR" INDICATES FEW OR NO CLOUDS BELOW 12,000 FEET WITH NO
SIGNIFICANT WEATHER AND/OR OBSTRUCTIONS TO VISIBILITY.


SDZ001>005-009-010-012>017-172100-
NORTHWEST AND NORTH CENTRAL SOUTH DAKOTA

CITY           SKY/WX    TMP DP  RH WIND       PRES   REMARKS
BUFFALO          N/A     21  12  68 NW6       29.90F WCI  13
FAITH            N/A     21  14  74 W14       30.01F WCI   8
MOBRIDGE       SUNNY     27  16  63 NW13      29.99S WCI  16
$$

SDZ012>016-024>037-041>051-057-063-072>074-172100-
SOUTHWEST AND SOUTH CENTRAL SOUTH DAKOTA

CITY           SKY/WX    TMP DP  RH WIND       PRES   REMARKS
RAPID CTY ARPT CLOUDY    29  21  72 N13       29.97F WCI  19
PIERRE         SUNNY     28  21  75 W15       30.05F WCI  16
CUSTER         MOSUNNY   28  13  53 W13       29.88F WCI  17
ELLSWORTH AFB  CLOUDY    27  19  71 N10       29.97  WCI  17
PHILIP         MOSUNNY   30  23  75 VRB5      30.04S WCI  25
PINE RIDGE     SUNNY     36  24  62 SW7       29.99F
SPEARFISH        N/A     23  19  86 NE8       29.93F WCI  14
WINNER         FAIR      36  23  59 NW18      30.04F
$$

SDZ004>011-016>023-039-040-172100-
NORTHEAST SOUTH DAKOTA

CITY           SKY/WX    TMP DP  RH WIND       PRES   REMARKS
ABERDEEN       MOSUNNY   32  14  47 NW21      30.01S WCI  20
WATERTOWN      PTSUNNY   32  18  56 W15G23    29.95R WCI  22
BROOKINGS      MOSUNNY   32  21  64 NW18      29.96R WCI  20
SISSETON         N/A     33  10  38 NW24G32   29.94S WCI  20
$$

SDZ017-020-022-023-036>040-048>070-172100-
SOUTHEAST SOUTH DAKOTA

CITY           SKY/WX    TMP DP  RH WIND       PRES   REMARKS
SIOUX FALLS    PTSUNNY   32  26  78 W15       30.00S WCI  22
HURON          SUNNY     32  22  66 NW15      30.04S WCI  22
CHAMBERLAIN    PTSUNNY   32  25  76 W13       30.06F WCI  22
MITCHELL       MOSUNNY   32  24  72 NW16      30.06R WCI  21
YANKTON        PTSUNNY   33  28  81 NW17      30.04S WCI  22
$$

ABBREVIATIONS USED IN REMARKS
   TC - TEMPERATURE IN CELSIUS
  WCI - WIND CHILL INDEX
   HX - HEAT INDEX
  VSB - VISIBILITY





USA.gov is the U.S. government's official web portal to all federal, state and local government web resources and services.